TimeMST,TemperatureF,Dew PointF,Humidity,Sea Level PressureIn,VisibilityMPH,Wind Direction,Wind SpeedMPH,Gust SpeedMPH,PrecipitationIn,Events,Conditions,WindDirDegrees,DateUTC
12:53 AM,57.0,32.0,39,30.02,10.0,Calm,Calm,-,N/A,,Clear,0,2012-11-17 07:53:00
1:53 AM,55.0,32.0,42,30.03,10.0,Calm,Calm,-,N/A,,Clear,0,2012-11-17 08:53:00
2:53 AM,55.0,32.0,42,30.01,10.0,Calm,Calm,-,N/A,,Clear,0,2012-11-17 09:53:00
3:53 AM,53.1,32.0,45,30.01,10.0,Calm,Calm,-,N/A,,Clear,0,2012-11-17 10:53:00
4:53 AM,52.0,33.1,49,30.01,10.0,Calm,Calm,-,N/A,,Clear,0,2012-11-17 11:53:00
5:53 AM,53.1,34.0,48,30.02,10.0,Calm,Calm,-,N/A,,Clear,0,2012-11-17 12:53:00
6:53 AM,54.0,34.0,47,30.04,10.0,Calm,Calm,-,N/A,,Mostly Cloudy,0,2012-11-17 13:53:00
7:53 AM,55.0,32.0,42,30.06,10.0,Calm,Calm,-,N/A,,Clear,0,2012-11-17 14:53:00
8:53 AM,55.9,35.1,45,30.07,10.0,Calm,Calm,-,N/A,,Scattered Clouds,0,2012-11-17 15:53:00
9:53 AM,61.0,30.9,32,30.08,10.0,Calm,Calm,-,N/A,,Mostly Cloudy,0,2012-11-17 16:53:00
10:53 AM,63.0,32.0,31,30.06,10.0,Calm,Calm,-,N/A,,Partly Cloudy,0,2012-11-17 17:53:00
11:53 AM,66.0,34.0,30,30.05,10.0,WSW,3.5,-,N/A,,Mostly Cloudy,250,2012-11-17 18:53:00
12:53 PM,69.1,30.9,24,30.02,10.0,Calm,Calm,-,N/A,,Clear,0,2012-11-17 19:53:00
1:53 PM,71.1,30.9,23,30.00,10.0,Calm,Calm,-,N/A,,Partly Cloudy,0,2012-11-17 20:53:00
2:53 PM,73.0,28.9,20,29.98,10.0,SW,4.6,-,N/A,,Partly Cloudy,230,2012-11-17 21:53:00
3:53 PM,73.9,32.0,21,29.99,10.0,SW,3.5,-,N/A,,Clear,230,2012-11-17 22:53:00
4:53 PM,73.0,33.1,23,29.99,10.0,Calm,Calm,-,N/A,,Clear,0,2012-11-17 23:53:00
5:53 PM,69.1,34.0,27,29.99,10.0,Calm,Calm,-,N/A,,Clear,0,2012-11-18 00:53:00
6:53 PM,66.0,34.0,30,29.99,10.0,Calm,Calm,-,N/A,,Clear,0,2012-11-18 01:53:00
7:53 PM,63.0,35.1,35,30.01,10.0,Calm,Calm,-,N/A,,Clear,0,2012-11-18 02:53:00
8:53 PM,61.0,35.1,38,30.02,10.0,Calm,Calm,-,N/A,,Clear,0,2012-11-18 03:53:00
9:53 PM,60.1,34.0,38,30.02,10.0,Calm,Calm,-,N/A,,Clear,0,2012-11-18 04:53:00
10:53 PM,60.1,34.0,38,30.04,10.0,Calm,Calm,-,N/A,,Mostly Cloudy,0,2012-11-18 05:53:00
11:53 PM,61.0,34.0,36,30.04,10.0,Calm,Calm,-,N/A,,Overcast,0,2012-11-18 06:53:00